Regional Weather Roundup
Issued by NWS Newport/Morehead, NC

Current Version | Previous Version | Text Only | Print | Product List | Glossary Off
Versions: 1 2 3 4 5 6 7 8 9 10 11 12 13 14 15 16 17 18 19 20 21 22 23 24 25 26 27 28 29 30 31 32 33 34 35 36 37 38 39 40 41 42 43 44 45 46 47 48 49 50
631 ASUS42 KMHX 130526 RWRMHX WEATHER ROUNDUP FOR EASTERN NORTH CAROLINA NATIONAL WEATHER SERVICE NEWPORT/MOREHEAD CITY NC 1200 AM EST WED DEC 13 2017 NOTE: "FAIR" INDICATES FEW OR NO CLOUDS BELOW 12,000 FEET WITH NO SIGNIFICANT WEATHER AND/OR OBSTRUCTIONS TO VISIBILITY NCZ015>017-031-032-045>047-102-103-130600- NORTH COAST CITY SKY/WX TMP DP RH WIND PRES REMARKS EDENTON CLEAR 35 14 41 NW17G29 29.76R ELIZABETH CITY CLEAR 34 10 37 W21G33 29.73R KITTY HAWK CLOUDY 35 26 68 NW14G24 29.69R MANTEO CLOUDY 37 19 48 NW18G30 29.72R $$ NCZ045>047-081-094-103-104-130600- CENTRAL COAST CITY SKY/WX TMP DP RH WIND PRES REMARKS FRISCO CLOUDY 41 27 57 NW20G30 29.70R $$ NCZ095-097-098-100-101-130600- SOUTHERN COAST CITY SKY/WX TMP DP RH WIND PRES REMARKS BEAUFORT CLEAR 39 25 57 NW24G31 29.78R CEDAR ISLAND NOT AVBL JACKSONVILLE CLEAR 38 21 50 NW18G24 29.80R PINEY ISLAND N/A N/A N/A N/A W26G33 29.75R WILMINGTON CLEAR 39 14 36 NW17G24 29.82R $$ NCZ011>013-027>030-043-044-078>080-089-090>093-098-130600- COASTAL PLAIN CITY SKY/WX TMP DP RH WIND PRES REMARKS AHOSKIE CLEAR 31 5 33 NW5 29.79R CLINTON CLEAR 36 14 40 NW9G18 29.84R ELIZABETHTOWN NOT AVBL GOLDSBORO CLEAR 34 14 44 NW9 29.80R GREENVILLE CLEAR 34 14 44 NW14G25 29.84R HAVELOCK PTCLDY 37 17 44 NW16G31 29.80R KENANSVILLE CLEAR 34 16 47 NW9 29.83R KINSTON CLEAR 34 14 43 NW13G24 29.82R NEW BERN CLEAR 35 16 45 NW17G30 29.80R RICHLANDS CLEAR 35 20 54 VRB6 29.81R ROCKY MOUNT CLEAR 31 15 52 NW13G22 29.82R WASHINGTON CLEAR 33 14 44 NW14G28 29.80R WHITEVILLE CLEAR 38 21 51 CALM 29.84R $$ AMZ130-135-150-152-154-156-158-170-250-252-270-ANZ085-086-088-633-658-670-130600- MARINE OBSERVATIONS STATION/POSITION TIME TEMP WIND PRES WAVE SWELL AIR SEA DIR/SP/G HT/PER HT/PER (UTC) (F) (DEG/KT/KT) (MB) (FT/S) (FT/S) CHESAPEAKE LIGHT NOT AVBL 64 E VA BEACH 0450 40 60 300/ 31/ 37 1002.4 11/ 7 DUCK 0500 36 56 310/ 18/ 22 1005.2 2 E DUCK 0500 56 N/A 6/ 6 OREGON INLET 0500 37 47 320/ 18/ 22 1005.3 13E OREGON INLT 0448 59 N/A 7/ 6 3/ 9 HATTERAS CG 0500 41 56 300/ 29/ 37 1005.5 DIAMOND BUOY 0510 45 72 310/ 31/ 39 1005.4 CAPE LOOKOUT 0500 310/ 20/ 26 1007.8 BEAUFORT LAB 0500 39 52 330/ 18/ 23 1008.3 30 SE NEW RVR IN 0508 46 63 340/ 21/ 31 1008.8 30 SE NEW RVR IN 0500 63 N/A 9/ 6 2/11 27 SE WRIGHTSVLE 0408 49 65 310/ 31/ 45 1007.8 5 SE WRIGHTSVLE 0508 44 58 320/ 21/ 31 1008.9 225 S CAPE HAT 0450 67 75 290/ 27/ 37 1004.5 17/10 41 SE CHARLESTON 0510 53 74 300/ 27/ 39 1010.6 $$

USA.gov is the U.S. government's official web portal to all federal, state and local government web resources and services.